CST,Max TemperatureF,Mean TemperatureF,Min TemperatureF,Max Dew PointF,MeanDew PointF,Min DewpointF,Max Humidity, Mean Humidity, Min Humidity, Max Sea Level PressureIn, Mean Sea Level PressureIn, Min Sea Level PressureIn, Max VisibilityMiles, Mean VisibilityMiles, Min VisibilityMiles, Max Wind SpeedMPH, Mean Wind SpeedMPH, Max Gust SpeedMPH,PrecipitationIn, CloudCover, Events, WindDirDegrees
2012-12-1,82,67,52,58,50,38,93,65,23,29.94,29.89,29.81,10,10,8,21,11,28,0.00,0,,183
2012-12-2,79,58,37,58,45,32,89,66,46,30.06,29.96,29.88,10,10,9,15,5,22,0.00,0,,172
2012-12-3,82,70,57,60,50,29,93,58,25,29.99,29.86,29.77,10,10,8,22,14,33,0.00,0,,204
2012-12-4,68,56,39,40,28,19,55,38,15,30.31,30.22,30.01,10,9,2,23,15,30,0.00,0,,10
2012-12-5,63,46,30,39,30,24,79,56,26,30.34,30.17,30.01,10,9,1,10,4,,0.00,0,,106
2012-12-6,73,60,46,47,41,33,100,69,24,29.99,29.85,29.73,10,7,1,17,10,26,0.00,2,,164
2012-12-7,55,46,37,43,40,33,93,75,59,29.94,29.86,29.81,10,9,4,13,8,,0.00,1,,15
2012-12-8,53,45,37,45,42,36,97,87,74,29.96,29.88,29.77,10,5,1,14,5,,0.00,5,,52
2012-12-9,53,42,32,45,31,8,100,70,29,30.15,29.88,29.71,10,6,0,26,8,37,0.00,2,Fog,355
2012-12-10,42,32,21,21,11,8,80,48,27,30.25,30.17,30.10,10,9,1,20,11,26,0.00,1,Snow,329
2012-12-11,48,30,12,19,13,8,81,56,27,30.24,30.17,30.12,10,10,10,8,2,,0.00,0,,170
2012-12-12,57,36,15,21,15,8,80,47,21,30.29,30.20,30.11,10,10,10,18,5,24,0.00,0,,159
2012-12-13,63,44,25,35,25,17,75,49,25,30.22,30.16,30.09,10,10,10,16,8,22,0.00,0,,158
2012-12-14,59,54,50,54,43,30,94,70,40,30.10,29.89,29.73,10,8,1,22,13,32,0.35,7,Rain,162
2012-12-15,59,52,44,44,37,34,74,56,42,29.85,29.78,29.74,10,10,10,15,11,26,0.00,0,,228
2012-12-16,66,52,37,38,34,24,89,60,20,29.81,29.75,29.67,10,10,7,15,5,25,0.00,0,,285
2012-12-17,55,42,30,37,33,29,96,77,44,29.92,29.84,29.79,10,7,2,10,4,16,0.00,0,,240
2012-12-18,63,45,27,34,29,24,93,70,29,29.83,29.78,29.73,10,8,2,6,1,,0.00,0,,333
2012-12-19,66,50,33,56,37,23,85,66,32,29.89,29.66,29.52,10,10,7,28,7,41,0.00,2,,224
2012-12-20,50,38,21,23,11,0,68,36,13,30.43,30.30,29.94,10,10,10,28,17,47,0.00,0,,316
2012-12-21,64,42,21,15,11,6,68,39,11,30.43,30.33,30.25,10,10,10,13,3,22,0.00,0,,213
2012-12-22,60,40,21,36,19,10,72,44,15,30.25,30.11,29.94,10,10,10,16,5,24,0.00,0,,187
2012-12-23,57,42,26,36,27,24,92,62,30,29.99,29.92,29.86,10,10,10,13,4,,0.00,0,,355
2012-12-24,43,36,28,23,21,20,69,55,42,30.07,29.97,29.87,10,9,8,16,10,,0.00,1,,22
2012-12-25,36,28,19,29,20,10,88,79,63,30.28,29.96,29.80,10,4,0,39,24,52,0.04,7,Fog-Snow,4
2012-12-26,27,22,16,16,10,5,88,67,56,30.36,30.25,30.13,10,10,10,21,11,24,0.00,1,,351
2012-12-27,36,26,17,29,22,14,93,82,70,30.12,29.99,29.88,10,8,4,16,5,,0.00,1,,110
2012-12-28,33,27,19,30,22,15,100,77,52,30.26,30.06,29.93,10,7,1,22,12,28,0.00,6,Snow,349
2012-12-29,46,30,14,27,19,11,88,74,42,30.46,30.39,30.27,10,10,9,6,1,,0.00,0,,167
2012-12-30,42,30,19,30,23,16,89,70,49,30.42,30.31,30.18,10,10,10,14,4,22,0.00,1,,150
2012-12-31,44,38,33,43,36,30,100,91,75,30.16,30.04,29.95,10,5,1,14,9,,0.22,7,Rain,150